This is the latest recevied weather packets stored in our database for station/object KB2SKP. If no packets are shown the sender has not sent any weather packets the latest 10 day(s).
| Time | Temp. | Humidity | Pressure | Rain* | Wind** | Luminosity | Snow |
|---|---|---|---|---|---|---|---|
| 1777934843 | 22.78° C | 36% | 1007.4 hPa | 0 mm | - | 18 W/m² | - |
| 1777934540 | 23.33° C | 36% | 1007.3 hPa | 0 mm | - | 19 W/m² | - |
| 1777934236 | 22.78° C | 35% | 1007.2 hPa | 0 mm | - | 21 W/m² | - |
| 1777933932 | 23.33° C | 35% | 1007.4 hPa | 0 mm | - | 23 W/m² | - |
| 1777933630 | 23.33° C | 35% | 1007.3 hPa | 0 mm | - | 25 W/m² | - |
| 1777933326 | 23.33° C | 35% | 1007.4 hPa | 0 mm | - | 25 W/m² | - |
| 1777933024 | 23.33° C | 34% | 1007.3 hPa | 0 mm | - | 39 W/m² | - |
| 1777932721 | 23.33° C | 35% | 1007.5 hPa | 0 mm | - | 29 W/m² | - |
| 1777932417 | 23.33° C | 35% | 1007.5 hPa | 0 mm | - | 32 W/m² | - |
| 1777932115 | 23.33° C | 34% | 1007.4 hPa | 0 mm | - | 36 W/m² | - |
| 1777931811 | 23.89° C | 33% | 1007.4 hPa | 0 mm | - | 55 W/m² | - |
| 1777931508 | 23.89° C | 34% | 1007.4 hPa | 0 mm | - | 30 W/m² | - |
| 1777931204 | 23.89° C | 33% | 1007.6 hPa | 0 mm | - | 41 W/m² | - |
| 1777930900 | 23.89° C | 33% | 1007.6 hPa | 0 mm | - | 61 W/m² | - |
| 1777930597 | 23.89° C | 33% | 1007.7 hPa | 0 mm | - | 46 W/m² | - |
| 1777930294 | 24.44° C | 37% | 1007.5 hPa | 0 mm | - | 42 W/m² | - |
| 1777929990 | 23.89° C | 34% | 1007.3 hPa | 0 mm | - | 48 W/m² | - |
| 1777929687 | 23.33° C | 35% | 1007.7 hPa | 0 mm | - | 63 W/m² | - |
| 1777929385 | 23.89° C | 34% | 1007.7 hPa | 0 mm | - | 70 W/m² | - |
| 1777929081 | 23.33° C | 36% | 1007.4 hPa | 0 mm | - | 50 W/m² | - |
| 1777928779 | 23.89° C | 34% | 1007.6 hPa | 0 mm | - | 58 W/m² | - |
| 1777928475 | 23.89° C | 32% | 1007.7 hPa | 0 mm | - | 63 W/m² | - |
| 1777928173 | 23.89° C | 33% | 1007.7 hPa | 0 mm | - | 84 W/m² | - |
| 1777927870 | 23.89° C | 32% | 1007.6 hPa | 0 mm | - | 113 W/m² | - |
| 1777927569 | 23.89° C | 32% | 1007.3 hPa | 0 mm | - | 171 W/m² | - |
* Rain latest hour (hover to see other rain measurements)
** Current wind speed in m/s (hover to see current wind gust speed)